Temp
22 21 21 21 20 20 19 19 18 18 19 19 18 18 18 18 17 17 17 17 16 16
22 22 21 21 20 20 19 19 18 19 19 19 18 17 17 17 17 16 16 16 16 15
22 22 21 20 19 20 19 18 18 19 18 19 18 17 16 16 16 15 15 15 14 14
23 21 20 19 19 19 19 18 18 18 18 19 18 17 16 16 15 14 14 14 14 14
22 21 20 19 19 19 18 18 19 18 18 17 16 15 15 15 14 14 14 13 13 14
21 20 19 19 19 18 18 18 18 17 17 16 15 15 14 14 14 13 13 12 13 13
21 20 19 19 18 19 18 18 17 17 16 15 15 14 13 13 13 13 13 12 12 12
21 20 19 18 18 17 18 17 17 16 15 15 14 14 13 13 13 13 12 12 12 12
20 19 18 18 17 17 18 17 16 15 15 14 14 13 13 13 13 13 12 11 11 11
19 19 18 17 17 17 17 16 16 15 15 14 14 14 13 13 12 12 12 11 11 11
19 18 17 17 17 17 16 16 16 15 15 15 14 13 13 12 11 11 11 11 11 11
18 17 17 17 17 16 16 16 15 15 15 14 13 13 12 12 12 11 11 12 11 11
18 17 17 17 16 16 15 15 15 14 13 13 13 12 12 12 12 12 12 11 11 10
18 17 16 15 15 15 14 15 14 14 13 12 12 12 12 12 11 11 11 10 10 10
Height
1523 1525 1526 1527 1526 1526 1526 1526 1527 1526 1525 1525 1525 1525 1525 1525 1524 1524 1524 1523 1522 1522
1520 1522 1523 1522 1524 1524 1525 1526 1526 1526 1525 1525 1525 1525 1525 1525 1525 1524 1524 1524 1522 1522
1518 1520 1520 1520 1522 1523 1525 1525 1526 1525 1526 1525 1525 1525 1525 1524 1524 1522 1522 1521 1521 1520
1514 1516 1517 1518 1520 1522 1523 1524 1525 1526 1526 1525 1525 1525 1524 1524 1524 1524 1522 1521 1520 1519
1510 1513 1514 1516 1518 1520 1523 1524 1525 1525 1525 1525 1526 1525 1524 1524 1523 1523 1522 1521 1520 1517
1506 1508 1511 1513 1516 1518 1521 1523 1525 1526 1526 1527 1527 1527 1526 1525 1523 1522 1522 1522 1520 1519
1501 1504 1507 1511 1514 1517 1520 1522 1524 1525 1526 1527 1527 1527 1527 1526 1526 1524 1521 1520 1519 1518
1498 1502 1506 1511 1514 1517 1519 1520 1522 1522 1523 1523 1524 1525 1525 1526 1525 1524 1523 1521 1520 1519
1495 1499 1504 1508 1511 1514 1516 1517 1519 1519 1520 1521 1521 1521 1521 1521 1522 1522 1521 1522 1521 1520
1491 1495 1499 1504 1508 1510 1513 1515 1517 1518 1519 1519 1519 1519 1519 1520 1519 1519 1520 1520 1520 1520
1488 1492 1497 1502 1505 1507 1510 1512 1515 1516 1516 1516 1517 1518 1520 1519 1518 1518 1518 1518 1517 1516
1487 1491 1497 1500 1502 1503 1507 1509 1511 1513 1514 1514 1514 1517 1519 1520 1518 1518 1517 1516 1515 1513
1488 1493 1497 1499 1500 1502 1505 1508 1510 1513 1515 1516 1514 1516 1518 1520 1519 1518 1516 1514 1511 1510
1489 1494 1499 1502 1503 1503 1503 1506 1507 1509 1513 1515 1516 1517 1517 1517 1517 1516 1514 1511 1508 1507
Wind_Speed
24 21 15 14 10 7 5 5 2 3 2 2 3 3 3 2 1 3 4 4 5 6
24 18 15 13 9 6 6 6 2 1 1 2 2 2 2 3 3 4 4 5 5 6
23 18 15 11 10 9 10 7 1 3 2 1 0 1 2 3 4 5 5 5 6 7
23 18 15 13 12 10 10 7 6 6 3 2 4 5 5 5 6 7 6 7 8 9
23 18 17 17 14 12 11 9 9 6 3 3 4 5 5 5 7 7 7 7 10 8
22 20 20 18 15 14 12 11 8 5 4 3 4 4 4 5 5 7 8 9 8 6
24 23 20 19 17 16 13 11 9 5 4 5 6 6 6 6 8 8 8 5 6 6
26 23 22 21 17 15 12 11 9 6 7 7 6 8 9 9 9 8 2 5 7 6
28 27 24 22 18 16 14 12 9 9 7 6 7 8 9 8 6 4 3 1 3 4
30 29 27 23 18 17 15 13 11 8 6 5 5 4 3 4 5 5 5 7 8 8
31 28 28 23 20 18 16 13 10 8 5 3 3 3 1 3 5 7 6 7 9 12
32 30 28 25 22 19 15 15 10 6 5 6 8 7 4 1 1 3 5 6 7 11
28 27 26 23 21 16 15 11 8 6 6 8 11 8 4 1 2 3 4 7 10 9
22 22 19 18 16 15 14 12 11 10 10 10 8 6 4 6 6 7 9 11 12 8
Wind_Direction
241 247 258 259 250 239 216 211 279 334 15 74 85 85 74 63 29 30 8 356 337 322
238 247 258 257 233 218 203 204 259 276 34 76 95 81 69 42 16 5 10 9 10 343
234 241 256 235 214 198 201 200 231 165 131 73 213 282 329 336 342 339 335 346 345 338
229 235 240 216 203 196 198 197 199 193 207 239 256 268 282 294 306 313 320 329 340 350
225 227 217 207 206 200 198 203 200 210 227 244 241 243 266 302 309 322 330 343 346 347
218 214 204 202 197 196 194 191 199 210 240 268 277 268 286 311 320 316 323 329 352 10
212 200 195 189 186 182 189 195 198 214 262 286 285 269 278 287 281 297 311 359 22 33
197 191 188 185 180 183 188 194 208 236 259 264 260 263 269 272 286 301 335 51 44 55
189 187 186 184 186 193 200 204 219 230 230 251 264 272 265 263 271 260 254 342 36 28
190 190 188 187 191 198 203 213 220 216 239 260 280 262 244 244 250 253 280 299 290 296
193 191 187 191 197 205 211 220 213 215 220 222 199 168 186 258 266 267 285 311 315 311
193 192 191 198 200 209 216 204 208 206 183 177 155 137 119 62 332 299 297 319 342 329
193 193 195 205 207 209 202 198 190 177 163 161 158 158 158 151 37 23 349 332 331 337
188 195 206 209 215 208 192 191 176 161 160 163 175 195 236 277 304 323 328 330 333 336